Time,TemperatureF,DewpointF,PressureIn,WindDirection,WindDirectionDegrees,WindSpeedMPH,WindSpeedGustMPH,Humidity,HourlyPrecipIn,Conditions,Clouds,dailyrainin,SoftwareType,DateUTC
2013-01-18 00:03:00,29.0,24.0,30.32,ESE,121,0.0,0.0,80,0.00,,,1.28,,2013-01-18 05:03:00,
2013-01-18 00:12:00,29.0,24.0,30.32,ESE,121,0.0,0.0,80,0.00,,,1.28,,2013-01-18 05:12:00,
2013-01-18 00:22:00,30.0,25.0,30.32,ESE,119,0.0,0.0,80,0.00,,,1.28,,2013-01-18 05:22:00,
2013-01-18 00:33:00,28.0,23.0,30.32,ESE,119,0.0,0.0,80,0.00,,,1.28,,2013-01-18 05:33:00,
2013-01-18 00:42:00,28.0,23.0,30.32,ESE,119,0.0,0.0,80,0.00,,,1.28,,2013-01-18 05:42:00,
2013-01-18 00:52:00,27.0,22.0,30.32,ESE,119,0.0,0.0,80,0.00,,,1.28,,2013-01-18 05:52:00,
2013-01-18 01:02:00,27.0,22.0,30.32,ESE,119,0.0,0.0,80,0.00,,,1.28,,2013-01-18 06:02:00,
2013-01-18 01:12:00,27.0,22.0,30.32,ESE,119,0.0,0.0,80,0.00,,,1.28,,2013-01-18 06:12:00,
2013-01-18 01:22:00,27.0,22.0,30.35,ESE,120,0.0,0.0,80,0.00,,,1.28,,2013-01-18 06:22:00,
2013-01-18 01:33:00,27.0,22.0,30.35,ESE,119,0.0,0.0,80,0.00,,,1.28,,2013-01-18 06:33:00,
2013-01-18 01:43:00,27.0,22.0,30.35,ESE,119,0.0,0.0,80,0.00,,,1.28,,2013-01-18 06:43:00,
2013-01-18 01:52:00,27.0,22.0,30.35,ESE,120,0.0,0.0,80,0.00,,,1.28,,2013-01-18 06:52:00,
2013-01-18 02:02:00,26.0,21.0,30.35,ESE,120,0.0,0.0,80,0.00,,,1.24,,2013-01-18 07:02:00,
2013-01-18 02:12:00,26.0,21.0,30.35,ESE,120,0.0,0.0,80,0.00,,,1.24,,2013-01-18 07:12:00,
2013-01-18 02:22:00,26.0,21.0,30.35,ESE,120,0.0,0.0,80,0.00,,,1.24,,2013-01-18 07:22:00,
2013-01-18 02:33:00,25.0,20.0,30.38,ESE,120,0.0,0.0,81,0.00,,,1.24,,2013-01-18 07:33:00,
2013-01-18 02:42:00,25.0,20.0,30.38,ESE,120,0.0,0.0,81,0.00,,,1.24,,2013-01-18 07:42:00,
2013-01-18 02:52:00,25.0,20.0,30.38,ESE,120,0.0,0.0,81,0.00,,,1.24,,2013-01-18 07:52:00,
2013-01-18 03:02:00,24.0,19.0,30.38,ESE,122,0.0,0.0,81,0.00,,,1.24,,2013-01-18 08:02:00,
2013-01-18 03:12:00,24.0,19.0,30.38,ESE,122,0.0,0.0,81,0.00,,,1.24,,2013-01-18 08:12:00,
2013-01-18 03:22:00,24.0,19.0,30.38,ESE,119,0.0,0.0,81,0.00,,,1.24,,2013-01-18 08:22:00,
2013-01-18 03:32:00,24.0,19.0,30.38,ESE,120,0.0,0.0,81,0.00,,,1.24,,2013-01-18 08:32:00,
2013-01-18 03:42:00,24.0,19.0,30.38,ESE,120,0.0,0.0,81,0.00,,,1.24,,2013-01-18 08:42:00,
2013-01-18 03:52:00,23.0,18.0,30.38,ESE,121,0.0,0.0,81,0.00,,,1.24,,2013-01-18 08:52:00,
2013-01-18 04:03:00,23.0,18.0,30.38,ESE,119,0.0,0.0,81,0.00,,,1.24,,2013-01-18 09:03:00,
2013-01-18 04:12:00,23.0,18.0,30.38,ESE,119,0.0,0.0,81,0.00,,,1.24,,2013-01-18 09:12:00,
2013-01-18 04:22:00,24.0,19.0,30.38,ESE,120,0.0,0.0,81,0.00,,,1.24,,2013-01-18 09:22:00,
2013-01-18 04:33:00,24.0,19.0,30.38,ESE,121,0.0,0.0,81,0.00,,,1.24,,2013-01-18 09:33:00,
2013-01-18 04:42:00,24.0,19.0,30.38,ESE,121,0.0,0.0,81,0.00,,,1.24,,2013-01-18 09:42:00,
2013-01-18 04:52:00,24.0,19.0,30.38,ESE,119,0.0,0.0,81,0.00,,,1.20,,2013-01-18 09:52:00,
2013-01-18 05:03:00,23.0,18.0,30.38,ESE,119,0.0,0.0,82,0.00,,,1.20,,2013-01-18 10:03:00,
2013-01-18 05:12:00,23.0,18.0,30.38,ESE,119,0.0,0.0,82,0.00,,,1.20,,2013-01-18 10:12:00,
2013-01-18 05:22:00,22.0,17.0,30.41,ESE,123,0.0,0.0,82,0.00,,,1.20,,2013-01-18 10:22:00,
2013-01-18 05:32:00,22.0,17.0,30.41,ESE,121,0.0,0.0,82,0.00,,,1.20,,2013-01-18 10:32:00,
2013-01-18 05:43:00,22.0,17.0,30.41,ESE,121,0.0,0.0,82,0.00,,,1.20,,2013-01-18 10:43:00,
2013-01-18 05:52:00,22.0,17.0,30.38,ESE,119,0.0,0.0,82,0.00,,,1.16,,2013-01-18 10:52:00,
2013-01-18 06:02:00,21.0,16.0,30.38,ESE,121,0.0,0.0,82,0.00,,,1.16,,2013-01-18 11:02:00,
2013-01-18 06:12:00,21.0,16.0,30.38,ESE,121,0.0,0.0,82,0.00,,,1.16,,2013-01-18 11:12:00,
2013-01-18 06:23:00,21.0,16.0,30.41,ESE,118,0.0,0.0,82,0.00,,,1.16,,2013-01-18 11:23:00,
2013-01-18 06:32:00,21.0,16.0,30.41,ESE,119,0.0,0.0,82,0.00,,,1.16,,2013-01-18 11:32:00,
2013-01-18 06:42:00,21.0,16.0,30.41,ESE,119,0.0,0.0,82,0.00,,,1.16,,2013-01-18 11:42:00,
2013-01-18 06:52:00,21.0,16.0,30.41,ESE,120,0.0,0.0,82,0.00,,,1.16,,2013-01-18 11:52:00,
2013-01-18 07:03:00,21.0,16.0,30.41,ESE,120,0.0,0.0,82,0.00,,,1.16,,2013-01-18 12:03:00,
2013-01-18 07:12:00,21.0,16.0,30.41,ESE,120,0.0,0.0,82,0.00,,,1.16,,2013-01-18 12:12:00,
2013-01-18 07:23:00,21.0,16.0,30.41,ESE,120,0.0,0.0,81,0.00,,,1.16,,2013-01-18 12:23:00,
2013-01-18 07:33:00,20.0,15.0,30.41,ESE,120,0.0,0.0,82,0.00,,,1.16,,2013-01-18 12:33:00,
2013-01-18 07:43:00,20.0,15.0,30.41,ESE,120,0.0,0.0,82,0.00,,,1.16,,2013-01-18 12:43:00,
2013-01-18 07:52:00,21.0,16.0,30.44,ESE,119,0.0,0.0,81,0.00,,,1.16,,2013-01-18 12:52:00,
2013-01-18 08:03:00,21.0,16.0,30.44,ESE,119,0.0,0.0,81,0.00,,,1.16,,2013-01-18 13:03:00,
2013-01-18 08:12:00,21.0,16.0,30.44,ESE,119,0.0,0.0,81,0.00,,,1.16,,2013-01-18 13:12:00,
2013-01-18 08:23:00,23.0,18.0,30.44,ESE,117,0.0,0.0,81,0.00,,,1.16,,2013-01-18 13:23:00,
2013-01-18 08:33:00,23.0,18.0,30.44,ESE,121,0.0,0.0,81,0.00,,,1.16,,2013-01-18 13:33:00,
2013-01-18 08:43:00,23.0,18.0,30.44,ESE,121,0.0,0.0,81,0.00,,,1.16,,2013-01-18 13:43:00,
2013-01-18 08:53:00,23.0,18.0,30.47,ESE,119,0.0,0.0,81,0.00,,,1.16,,2013-01-18 13:53:00,
2013-01-18 09:03:00,24.0,19.0,30.47,ESE,121,0.0,0.0,80,0.00,,,1.16,,2013-01-18 14:03:00,
2013-01-18 09:12:00,24.0,19.0,30.47,ESE,121,0.0,0.0,80,0.00,,,1.16,,2013-01-18 14:12:00,
2013-01-18 09:23:00,25.0,20.0,30.47,ESE,121,0.0,0.0,80,0.00,,,1.16,,2013-01-18 14:23:00,
2013-01-18 09:34:00,26.0,21.0,30.47,ESE,120,0.0,0.0,80,0.00,,,1.12,,2013-01-18 14:34:00,
2013-01-18 09:43:00,26.0,21.0,30.47,ESE,120,0.0,0.0,80,0.00,,,1.12,,2013-01-18 14:43:00,
2013-01-18 09:53:00,27.0,22.0,30.50,ESE,120,0.0,0.0,80,0.00,,,1.08,,2013-01-18 14:53:00,
2013-01-18 10:03:00,29.0,23.0,30.50,ESE,121,0.0,0.0,79,0.00,,,1.04,,2013-01-18 15:03:00,
2013-01-18 10:13:00,29.0,23.0,30.50,ESE,121,0.0,0.0,79,0.00,,,1.04,,2013-01-18 15:13:00,
2013-01-18 10:23:00,29.0,23.0,30.50,ESE,119,0.0,0.0,79,0.00,,,1.04,,2013-01-18 15:23:00,
2013-01-18 10:34:00,31.0,25.0,30.50,ESE,119,0.0,0.0,79,0.00,,,1.00,,2013-01-18 15:34:00,
2013-01-18 10:43:00,31.0,25.0,30.50,ESE,119,0.0,0.0,79,0.00,,,1.00,,2013-01-18 15:43:00,
2013-01-18 10:53:00,31.0,25.0,30.53,ESE,119,0.0,0.0,78,0.00,,,0.96,,2013-01-18 15:53:00,
2013-01-18 11:03:00,32.0,26.0,30.50,ESE,120,4.0,5.0,78,0.00,,,0.92,,2013-01-18 16:03:00,
2013-01-18 11:13:00,32.0,26.0,30.50,ESE,120,4.0,5.0,78,0.00,,,0.92,,2013-01-18 16:13:00,
2013-01-18 11:23:00,33.0,27.0,30.50,SW,221,4.0,5.0,78,0.00,,,0.88,,2013-01-18 16:23:00,
2013-01-18 11:33:00,33.0,26.0,30.50,SW,223,0.0,5.0,74,0.00,,,0.84,,2013-01-18 16:33:00,
2013-01-18 11:42:00,33.0,26.0,30.50,SW,223,0.0,5.0,74,0.00,,,0.84,,2013-01-18 16:42:00,
2013-01-18 11:52:00,33.0,26.0,30.50,SW,232,3.0,5.0,74,0.00,,,0.80,,2013-01-18 16:52:00,
2013-01-18 12:03:00,33.0,25.0,30.50,SW,220,0.0,4.0,72,0.00,,,0.72,,2013-01-18 17:03:00,
2013-01-18 12:13:00,33.0,25.0,30.50,SW,220,0.0,4.0,72,0.00,,,0.72,,2013-01-18 17:13:00,
2013-01-18 12:23:00,33.0,25.0,30.50,SW,221,0.0,4.0,71,0.00,,,0.68,,2013-01-18 17:23:00,
2013-01-18 12:34:00,34.0,26.0,30.50,SW,220,0.0,4.0,73,0.00,,,0.60,,2013-01-18 17:34:00,
2013-01-18 12:43:00,34.0,26.0,30.50,SW,220,0.0,4.0,73,0.00,,,0.60,,2013-01-18 17:43:00,
2013-01-18 12:53:00,34.0,26.0,30.47,SW,221,0.0,4.0,73,0.00,,,0.56,,2013-01-18 17:53:00,
2013-01-18 13:03:00,35.0,28.0,30.47,SW,219,3.0,5.0,76,0.00,,,0.40,,2013-01-18 18:03:00,
2013-01-18 13:13:00,35.0,28.0,30.47,SW,219,3.0,5.0,76,0.00,,,0.40,,2013-01-18 18:13:00,
2013-01-18 13:23:00,35.0,28.0,30.47,SW,218,3.0,5.0,75,0.00,,,0.36,,2013-01-18 18:23:00,
2013-01-18 13:33:00,35.0,25.0,30.47,SW,218,3.0,5.0,66,0.00,,,0.28,,2013-01-18 18:33:00,
2013-01-18 13:43:00,35.0,25.0,30.47,SW,218,3.0,5.0,66,0.00,,,0.28,,2013-01-18 18:43:00,
2013-01-18 13:52:00,35.0,23.0,30.47,SSW,210,4.0,6.0,62,0.00,,,0.24,,2013-01-18 18:52:00,
2013-01-18 14:03:00,36.0,26.0,30.47,SE,137,0.0,5.0,67,0.00,,,0.20,,2013-01-18 19:03:00,
2013-01-18 14:13:00,36.0,26.0,30.47,SE,137,0.0,5.0,67,0.00,,,0.20,,2013-01-18 19:13:00,
2013-01-18 14:23:00,36.0,26.0,30.47,NE,37,4.0,5.0,68,0.00,,,0.12,,2013-01-18 19:23:00,
2013-01-18 14:33:00,37.0,25.0,30.47,South,174,0.0,5.0,62,0.00,,,0.08,,2013-01-18 19:33:00,
2013-01-18 14:43:00,37.0,25.0,30.47,South,174,0.0,5.0,62,0.00,,,0.08,,2013-01-18 19:43:00,
2013-01-18 14:52:00,37.0,26.0,30.47,South,175,3.0,4.0,65,0.00,,,0.04,,2013-01-18 19:52:00,
2013-01-18 15:03:00,37.0,26.0,30.47,East,84,3.0,5.0,65,0.04,,,0.04,,2013-01-18 20:03:00,
2013-01-18 15:13:00,37.0,26.0,30.47,East,84,3.0,5.0,65,0.04,,,0.04,,2013-01-18 20:13:00,
2013-01-18 15:23:00,37.0,26.0,30.47,East,83,0.0,5.0,64,0.04,,,0.04,,2013-01-18 20:23:00,
2013-01-18 15:33:00,37.0,24.0,30.47,East,82,4.0,5.0,58,0.04,,,0.04,,2013-01-18 20:33:00,
2013-01-18 15:43:00,37.0,24.0,30.47,East,82,4.0,5.0,58,0.04,,,0.04,,2013-01-18 20:43:00,
2013-01-18 15:53:00,37.0,22.0,30.47,ENE,74,3.0,5.0,54,0.04,,,0.04,,2013-01-18 20:53:00,
2013-01-18 16:03:00,37.0,21.0,30.47,ENE,73,4.0,4.0,53,0.00,,,0.04,,2013-01-18 21:03:00,
2013-01-18 16:13:00,37.0,21.0,30.47,ENE,73,4.0,4.0,53,0.00,,,0.04,,2013-01-18 21:13:00,
2013-01-18 16:23:00,37.0,21.0,30.47,ENE,71,4.0,5.0,53,0.00,,,0.04,,2013-01-18 21:23:00,
2013-01-18 16:33:00,37.0,21.0,30.47,ENE,71,0.0,4.0,53,0.08,,,0.12,,2013-01-18 21:33:00,
2013-01-18 16:43:00,37.0,21.0,30.47,ENE,71,0.0,4.0,53,0.08,,,0.12,,2013-01-18 21:43:00,
2013-01-18 16:52:00,37.0,22.0,30.47,ENE,73,3.0,4.0,55,0.08,,,0.12,,2013-01-18 21:52:00,
2013-01-18 17:03:00,36.0,20.0,30.47,SW,225,5.0,6.0,51,0.08,,,0.12,,2013-01-18 22:03:00,
2013-01-18 17:12:00,36.0,20.0,30.47,SW,225,5.0,6.0,51,0.08,,,0.12,,2013-01-18 22:12:00,
2013-01-18 17:23:00,37.0,22.0,30.47,SW,231,4.0,7.0,54,0.08,,,0.12,,2013-01-18 22:23:00,
2013-01-18 17:33:00,36.0,21.0,30.47,SW,228,5.0,5.0,54,0.00,,,0.12,,2013-01-18 22:33:00,
2013-01-18 17:43:00,36.0,21.0,30.47,SW,228,5.0,5.0,54,0.00,,,0.12,,2013-01-18 22:43:00,
2013-01-18 17:52:00,36.0,21.0,30.47,SW,230,3.0,5.0,53,0.00,,,0.12,,2013-01-18 22:52:00,
2013-01-18 18:03:00,36.0,21.0,30.47,SW,230,0.0,4.0,55,0.04,,,0.16,,2013-01-18 23:03:00,
2013-01-18 18:12:00,36.0,21.0,30.47,SW,230,0.0,4.0,55,0.04,,,0.16,,2013-01-18 23:12:00,
2013-01-18 18:23:00,35.0,23.0,30.47,SW,229,0.0,0.0,61,0.04,,,0.16,,2013-01-18 23:23:00,
2013-01-18 18:33:00,34.0,26.0,30.47,SW,230,0.0,3.0,73,0.04,,,0.16,,2013-01-18 23:33:00,
2013-01-18 18:43:00,34.0,26.0,30.47,SW,230,0.0,3.0,73,0.04,,,0.16,,2013-01-18 23:43:00,
2013-01-18 18:52:00,34.0,26.0,30.47,SW,229,0.0,3.0,73,0.04,,,0.16,,2013-01-18 23:52:00,
2013-01-18 19:02:00,33.0,27.0,30.47,SW,230,0.0,4.0,77,0.00,,,0.16,,2013-01-19 00:02:00,
2013-01-18 19:12:00,33.0,27.0,30.47,SW,230,0.0,4.0,77,0.00,,,0.16,,2013-01-19 00:12:00,
2013-01-18 19:23:00,32.0,26.0,30.44,SW,231,3.0,4.0,77,0.00,,,0.16,,2013-01-19 00:23:00,
2013-01-18 19:33:00,32.0,27.0,30.44,SW,230,0.0,4.0,80,0.00,,,0.16,,2013-01-19 00:33:00,
2013-01-18 19:43:00,32.0,27.0,30.44,SW,230,0.0,4.0,80,0.00,,,0.16,,2013-01-19 00:43:00,
2013-01-18 19:53:00,32.0,27.0,30.44,SW,229,3.0,4.0,80,0.00,,,0.16,,2013-01-19 00:53:00,
2013-01-18 20:03:00,33.0,28.0,30.44,SSW,204,0.0,5.0,81,0.00,,,0.16,,2013-01-19 01:03:00,
2013-01-18 20:12:00,33.0,28.0,30.44,SSW,204,0.0,5.0,81,0.00,,,0.16,,2013-01-19 01:12:00,
2013-01-18 20:22:00,32.0,27.0,30.44,SSW,205,0.0,3.0,81,0.00,,,0.16,,2013-01-19 01:22:00,
2013-01-18 20:33:00,30.0,25.0,30.44,SSW,205,0.0,3.0,81,0.00,,,0.16,,2013-01-19 01:33:00,
2013-01-18 20:42:00,30.0,25.0,30.44,SSW,205,0.0,3.0,81,0.00,,,0.16,,2013-01-19 01:42:00,
2013-01-18 20:52:00,30.0,25.0,30.44,SSW,204,3.0,3.0,81,0.00,,,0.16,,2013-01-19 01:52:00,
2013-01-18 21:02:00,30.0,25.0,30.44,SSW,201,0.0,0.0,82,0.00,,,0.16,,2013-01-19 02:02:00,
2013-01-18 21:12:00,30.0,25.0,30.44,SSW,201,0.0,0.0,82,0.00,,,0.16,,2013-01-19 02:12:00,
2013-01-18 21:22:00,30.0,25.0,30.44,SSW,202,0.0,0.0,82,0.00,,,0.16,,2013-01-19 02:22:00,
2013-01-18 21:33:00,28.0,23.0,30.44,SSW,203,0.0,0.0,82,0.00,,,0.16,,2013-01-19 02:33:00,
2013-01-18 21:43:00,28.0,23.0,30.44,SSW,203,0.0,0.0,82,0.00,,,0.16,,2013-01-19 02:43:00,
2013-01-18 21:53:00,30.0,25.0,30.44,SSW,203,0.0,3.0,82,0.00,,,0.16,,2013-01-19 02:53:00,
2013-01-18 22:03:00,27.0,23.0,30.44,SSW,203,0.0,0.0,83,0.00,,,0.16,,2013-01-19 03:03:00,
2013-01-18 22:12:00,27.0,23.0,30.44,SSW,203,0.0,0.0,83,0.00,,,0.16,,2013-01-19 03:12:00,
2013-01-18 22:22:00,27.0,22.0,30.44,SSW,205,0.0,0.0,82,0.00,,,0.16,,2013-01-19 03:22:00,
2013-01-18 22:33:00,27.0,22.0,30.44,SSW,205,0.0,0.0,82,0.00,,,0.16,,2013-01-19 03:33:00,
2013-01-18 22:43:00,27.0,22.0,30.44,SSW,205,0.0,0.0,82,0.00,,,0.16,,2013-01-19 03:43:00,
2013-01-18 22:52:00,27.0,22.0,30.44,SSW,207,0.0,0.0,82,0.00,,,0.16,,2013-01-19 03:52:00,
2013-01-18 23:02:00,28.0,23.0,30.44,SSW,206,0.0,3.0,82,0.00,,,0.16,,2013-01-19 04:02:00,
2013-01-18 23:12:00,28.0,23.0,30.44,SSW,206,0.0,3.0,82,0.00,,,0.16,,2013-01-19 04:12:00,
2013-01-18 23:22:00,28.0,23.0,30.44,SSW,204,0.0,0.0,82,0.00,,,0.16,,2013-01-19 04:22:00,
2013-01-18 23:32:00,27.0,23.0,30.41,SSW,205,0.0,0.0,83,0.00,,,0.16,,2013-01-19 04:32:00,
2013-01-18 23:42:00,27.0,23.0,30.41,SSW,205,0.0,0.0,83,0.00,,,0.16,,2013-01-19 04:42:00,
2013-01-18 23:52:00,27.0,23.0,30.41,SSW,203,0.0,0.0,83,0.00,,,0.16,,2013-01-19 04:52:00,